Hlavní strana
METAR-TAF:

METAR-TAF

Letiště :

Chesapeake Regional Airport

Norfolk, Virginie, Spojené státy americké

zeměpisná šířka: 36-39-56N, zeměpisná délka: 076-19-14W, výška: 6 m

Aktuální stav počasí

Zpráva byla vytvořena před 19 minutami, v 22:55 UTC
Jihozápadní vítr 5 kt
Teplota 18°C
Vlhkost vzduchu 77%
Tlak 998 hPa
Viditelnost: 16.1 km
Polojasno ve výšce 4800 ft
Oblačno až skoro zataženo ve výšce 6500 ft

METAR: KCPK 302255Z AUTO 23005KT 10SM SCT048 BKN065 18/14 A2948 RMK AO2 T01800137

Čas: 18:14 (23:14 UTC)


TAF: chybějící

Stav a předpovědi počasí z více než 4 000 letišť (zprávy METAR a TAF).

Červené a žluté tečky na mapě představují dostupné meteorologické stanice.

Když kurzor umístíte na tečku, zobrazí se název stanice.

Pak kliknutím zobrazíte stav a předpověď počasí.

Chcete-li změnit mapu, kliknutím na zelené tlačítko se znaménkem +mapu přiblížíte, kliknutím na zelené tlačítko se znaménkem – mapu oddálíte a kliknutím na zelené šipky přejdete na sousední mapy.


METAR-TAF: